Wind_Speed
4 6 8 7 5 8 10 11 12 13 14 14 15 17 18 18 16 15 13 16 17 18 18 22 23 24 24 24 26 30 35 40 42 43 41 41 37 33 27 25 21 18 13
8 9 12 9 7 8 9 11 14 15 14 14 14 16 17 18 18 18 17 17 18 20 21 23 24 23 24 25 26 29 34 39 41 42 40 40 38 34 29 26 23 18 12
13 13 16 15 16 16 15 16 18 19 20 19 18 18 17 18 19 19 20 20 23 24 25 25 25 25 25 26 27 29 33 38 40 42 39 40 36 34 31 26 26 19 14
14 16 18 21 22 23 24 25 29 25 21 25 21 21 22 21 22 23 21 22 25 27 26 27 28 29 29 30 30 29 31 36 38 41 38 39 36 33 31 25 24 20 12
21 21 22 24 26 27 28 32 35 36 35 32 27 26 24 26 26 27 28 24 23 26 26 27 29 31 32 32 30 29 30 34 37 39 37 37 34 32 30 23 20 21 16
30 32 33 33 32 32 33 35 37 38 42 43 36 34 31 27 30 31 32 32 28 27 28 30 31 31 31 32 31 29 29 30 36 36 34 34 33 31 30 23 19 18 19
39 40 41 43 43 44 45 45 43 46 46 43 42 38 36 37 37 33 34 34 31 29 31 35 42 32 34 37 31 28 28 27 33 35 33 31 31 31 29 26 17 17 17
48 48 47 49 51 51 51 52 53 49 47 45 43 42 39 37 39 41 41 37 35 33 32 24 34 20 37 47 26 25 25 25 28 31 30 27 29 28 26 26 18 16 16
52 52 52 52 53 56 60 58 56 51 49 47 45 45 44 43 40 43 41 41 38 36 35 35 33 37 34 42 19 18 24 23 24 28 27 25 26 26 25 24 20 14 14
55 55 57 58 65 67 67 64 63 58 56 54 52 52 47 47 47 45 42 40 36 33 32 32 30 30 31 31 25 18 24 23 22 25 25 25 22 23 21 18 19 14 16
66 67 68 70 71 70 68 67 67 65 61 58 56 58 57 55 49 48 47 38 34 33 31 31 28 26 29 24 25 25 23 23 22 22 24 24 21 18 19 16 14 12 10
72 72 73 73 74 74 74 73 71 71 69 66 61 60 60 62 61 52 48 46 35 29 30 27 26 26 29 27 27 24 25 22 23 22 21 21 19 15 15 14 11 8 5
72 73 74 75 75 76 75 75 74 72 70 68 67 64 62 61 60 60 54 47 41 32 29 28 27 25 31 27 27 24 27 25 23 23 20 17 18 14 10 11 10 7 3
72 71 71 71 71 72 72 71 71 71 71 68 64 60 58 60 62 60 56 51 45 36 31 32 31 27 30 31 27 28 27 28 25 25 19 16 16 16 11 7 9 9 6
72 72 72 73 73 75 76 77 76 74 75 73 67 62 60 56 56 57 54 52 48 40 33 33 31 30 29 34 30 32 29 27 31 25 26 20 15 16 15 11 8 12 10
76 77 78 79 80 81 81 82 84 84 84 83 77 71 65 60 59 55 55 50 47 43 36 34 33 33 32 36 36 34 33 33 30 34 28 27 23 19 18 18 13 12 14
73 71 70 66 59 57 61 64 66 67 73 78 83 83 76 70 61 59 56 54 49 45 39 35 36 36 37 38 39 37 36 34 34 35 33 33 29 25 24 20 18 15 14
55 55 56 56 57 56 57 58 62 65 69 74 76 78 79 78 73 62 59 55 50 46 40 36 38 41 42 42 40 38 39 37 37 37 38 36 35 29 27 22 20 20 19
58 59 60 60 59 56 56 57 55 52 49 44 46 52 56 59 68 65 58 55 51 47 44 40 42 44 45 46 43 45 40 40 40 39 39 37 38 31 26 25 22 22 22
65 62 64 59 56 54 53 50 47 42 39 41 40 41 44 45 49 51 53 55 53 48 47 43 44 45 48 48 47 48 44 42 43 43 42 43 42 37 30 26 25 22 25
46 43 47 48 48 49 49 46 44 41 39 38 36 34 35 36 41 48 53 54 52 50 47 46 46 49 50 49 49 49 48 46 46 46 43 42 40 42 38 30 29 27 25
27 29 31 36 41 44 44 42 40 40 37 35 35 35 33 32 34 44 48 53 53 51 47 47 49 50 53 54 53 51 51 49 47 47 48 42 40 40 37 37 34 32 29
19 23 28 29 28 28 30 32 33 35 39 40 38 36 33 31 33 39 45 51 55 52 49 48 49 52 54 54 53 52 53 51 51 49 48 42 42 40 43 42 39 38 36
21 22 22 19 18 17 18 20 21 24 26 29 31 32 31 33 34 39 44 49 52 52 53 48 53 55 56 55 53 52 51 50 50 48 45 50 45 45 43 45 47 46 41
20 20 20 21 21 23 23 25 24 25 26 27 28 29 30 33 35 38 42 43 50 47 48 50 42 50 52 50 49 49 48 47 41 44 47 50 43 50 46 54 52 48 43
17 20 20 18 17 14 17 18 25 26 27 28 30 32 26 30 33 31 36 42 47 52 51 31 44 47 47 45 40 47 46 43 48 47 52 49 48 53 51 51 52 52 46
Wind_Direction
315 319 323 316 341 1 1 354 351 353 348 334 326 322 319 311 302 289 277 284 288 282 283 289 300 310 316 323 329 335 339 340 349 351 347 348 347 348 349 347 339 325 316
274 282 284 295 326 325 336 347 342 341 337 331 329 320 316 316 313 303 300 298 294 292 291 289 296 309 315 322 325 332 338 338 345 352 347 349 350 349 350 353 344 338 330
273 283 291 287 301 316 324 328 334 334 329 323 318 311 307 304 301 299 299 299 295 296 303 299 296 307 315 321 325 330 335 336 342 347 348 348 353 351 356 357 352 351 341
293 293 293 299 303 311 318 325 322 316 312 320 308 304 298 295 294 293 290 290 291 297 303 307 312 314 318 321 323 325 331 333 339 345 347 348 356 353 360 3 360 4 8
285 287 290 291 297 301 304 311 314 315 314 310 299 294 286 288 289 290 294 292 292 295 303 309 311 315 317 317 318 319 324 331 333 344 347 348 357 355 6 8 9 20 18
282 288 291 293 291 289 291 296 302 307 307 307 301 297 287 286 287 287 287 292 295 302 308 308 307 308 310 310 310 310 316 326 329 342 347 348 356 358 7 14 11 14 25
285 287 288 288 292 295 297 297 298 299 300 300 302 299 292 289 285 284 283 286 292 301 312 332 316 303 309 301 297 302 309 320 325 337 347 350 352 0 6 15 20 27 33
283 284 285 287 289 291 295 295 296 294 294 294 293 294 293 291 287 283 284 287 293 303 311 325 348 295 297 298 281 293 300 310 320 330 344 349 350 357 6 11 26 40 46
276 276 277 280 283 288 290 290 289 288 286 284 286 289 290 289 286 285 285 286 290 294 304 301 300 301 303 310 264 282 293 299 312 319 339 348 353 351 3 10 19 49 59
268 268 272 275 281 283 284 284 285 284 284 284 286 286 286 288 287 286 285 284 287 290 289 294 300 302 305 308 250 256 284 295 302 308 321 340 354 347 355 12 12 40 83
273 273 272 274 276 278 279 280 280 280 279 278 280 283 284 284 283 283 285 284 283 281 280 284 292 295 298 295 288 245 263 282 291 299 308 322 342 349 343 355 21 26 77
270 271 272 274 275 277 278 278 278 279 278 278 276 277 279 279 279 279 280 284 283 276 273 274 278 285 287 297 292 270 246 266 282 288 295 306 319 344 337 339 351 34 48
273 274 275 276 277 278 279 280 280 280 280 279 278 275 273 272 272 273 274 277 278 274 271 267 266 266 280 286 287 278 236 249 271 278 287 294 303 318 341 324 319 328 51
280 279 278 277 277 276 277 276 276 276 276 275 274 273 270 268 267 266 266 267 272 271 264 261 260 256 268 280 279 279 244 239 260 269 277 281 294 293 305 307 293 292 285
279 279 278 276 276 275 275 274 274 273 272 270 269 268 266 264 263 265 263 263 263 266 261 258 255 250 256 269 269 270 267 250 251 260 265 262 278 288 282 284 274 271 260
279 278 277 276 275 275 275 274 273 271 270 269 267 265 262 260 258 258 260 259 258 260 254 250 246 244 247 258 266 268 264 259 248 248 258 263 259 273 282 275 269 253 255
280 279 278 277 275 275 276 276 275 274 272 268 266 263 259 258 255 253 253 255 254 253 252 247 242 239 242 246 256 264 265 257 252 244 245 256 255 260 265 270 269 259 245
282 281 279 277 276 279 280 278 277 278 278 268 261 256 255 255 254 250 247 248 249 248 246 239 237 236 237 240 248 255 259 256 252 244 249 247 252 254 266 261 269 263 253
280 277 276 274 273 275 277 279 279 284 280 258 252 256 249 249 250 250 246 242 242 241 240 233 231 231 233 238 240 250 250 254 251 248 247 243 248 250 263 257 264 270 256
279 276 274 275 271 274 278 277 278 279 269 261 257 249 246 242 237 234 236 236 235 234 232 229 227 229 231 233 236 245 247 248 247 246 243 242 244 251 254 263 261 265 264
274 275 275 278 277 274 273 272 270 268 263 261 257 254 253 247 239 230 225 225 226 227 227 224 225 226 229 233 238 241 245 244 245 246 240 240 245 244 255 259 264 262 268
291 287 287 287 282 275 270 266 267 259 260 257 257 254 255 252 247 231 223 216 215 217 221 223 223 225 228 230 234 238 242 242 244 246 239 239 244 248 254 256 260 256 257
292 294 297 300 296 287 274 269 266 258 257 259 255 249 246 243 251 230 220 215 213 212 214 219 222 224 227 230 233 238 241 242 240 246 246 240 249 247 252 252 258 251 254
289 296 301 306 309 303 289 279 272 268 263 258 254 247 242 240 241 229 223 218 214 209 209 216 221 226 229 230 233 238 240 245 246 243 244 250 251 252 245 249 259 251 249
302 299 299 300 296 293 284 273 270 265 261 260 252 245 245 245 238 229 222 222 212 205 210 206 215 225 231 233 234 238 241 245 246 252 244 239 248 249 257 256 262 243 242
313 316 301 298 307 313 317 297 282 269 284 252 245 250 238 240 221 229 228 222 212 208 206 214 213 223 227 227 231 233 237 245 243 254 240 250 242 248 257 257 255 237 228
Height
5933 5932 5932 5932 5931 5931 5932 5932 5930 5928 5927 5925 5924 5923 5920 5918 5916 5914 5912 5911 5910 5908 5907 5905 5902 5899 5896 5891 5886 5881 5874 5866 5859 5851 5842 5833 5825 5816 5808 5801 5795 5789 5784
5930 5929 5929 5930 5931 5931 5930 5929 5928 5927 5926 5924 5923 5921 5919 5917 5916 5914 5911 5910 5907 5906 5904 5901 5899 5896 5894 5890 5885 5879 5873 5864 5857 5848 5840 5831 5824 5815 5805 5798 5792 5785 5781
5927 5925 5925 5926 5929 5927 5926 5925 5925 5924 5924 5922 5921 5920 5918 5915 5913 5912 5910 5908 5905 5903 5901 5899 5897 5894 5892 5887 5883 5877 5871 5863 5856 5848 5839 5830 5822 5814 5804 5797 5790 5784 5777
5924 5922 5921 5921 5920 5919 5919 5919 5919 5919 5919 5919 5918 5916 5914 5912 5909 5907 5906 5904 5902 5900 5900 5898 5897 5895 5892 5887 5882 5876 5869 5862 5854 5848 5839 5830 5822 5814 5805 5797 5790 5783 5776
5919 5919 5918 5917 5915 5915 5914 5913 5912 5911 5911 5911 5912 5911 5909 5907 5905 5903 5902 5900 5898 5896 5897 5897 5894 5891 5888 5884 5879 5873 5867 5862 5853 5847 5839 5831 5823 5814 5807 5800 5793 5786 5778
5913 5912 5911 5912 5911 5911 5909 5908 5907 5906 5905 5903 5903 5902 5902 5901 5899 5898 5897 5894 5894 5894 5894 5893 5890 5886 5881 5878 5875 5870 5864 5861 5852 5846 5840 5832 5824 5817 5809 5803 5796 5790 5782
5903 5902 5902 5901 5901 5901 5900 5900 5899 5898 5896 5895 5894 5894 5893 5892 5891 5891 5888 5888 5889 5890 5890 5889 5883 5881 5875 5870 5868 5866 5861 5858 5852 5845 5839 5833 5826 5820 5814 5808 5801 5795 5786
5892 5892 5891 5890 5890 5889 5888 5888 5887 5886 5884 5884 5884 5883 5883 5883 5881 5878 5879 5881 5884 5886 5883 5880 5874 5872 5869 5863 5860 5861 5857 5854 5850 5843 5838 5833 5827 5822 5817 5812 5806 5800 5794
5879 5879 5879 5878 5876 5876 5875 5874 5873 5872 5872 5872 5872 5872 5871 5872 5871 5867 5869 5871 5875 5877 5876 5872 5871 5866 5859 5853 5851 5852 5852 5849 5847 5841 5837 5833 5830 5824 5820 5817 5811 5807 5801
5865 5865 5864 5863 5863 5862 5861 5860 5860 5861 5861 5860 5859 5858 5860 5860 5859 5858 5858 5859 5865 5867 5866 5863 5861 5857 5853 5848 5844 5845 5847 5846 5843 5840 5836 5833 5831 5826 5822 5819 5816 5813 5808
5849 5848 5848 5846 5844 5843 5844 5844 5843 5843 5845 5847 5847 5845 5844 5844 5847 5847 5845 5848 5853 5856 5854 5854 5852 5850 5847 5843 5841 5838 5840 5840 5839 5837 5835 5831 5830 5828 5824 5822 5821 5817 5814
5828 5829 5828 5826 5825 5824 5824 5824 5825 5825 5825 5827 5830 5831 5831 5830 5830 5833 5833 5834 5841 5843 5843 5845 5844 5842 5839 5837 5834 5831 5833 5834 5833 5833 5832 5829 5827 5827 5826 5823 5823 5822 5819
5809 5808 5806 5804 5803 5802 5802 5801 5801 5803 5804 5806 5809 5814 5815 5814 5816 5817 5819 5821 5825 5831 5832 5834 5834 5834 5831 5830 5827 5825 5827 5829 5827 5828 5827 5825 5825 5825 5825 5823 5822 5822 5823
5786 5785 5784 5783 5782 5780 5778 5779 5780 5781 5781 5784 5788 5792 5796 5797 5798 5800 5803 5806 5810 5815 5821 5822 5823 5824 5823 5820 5820 5819 5819 5822 5823 5822 5821 5821 5821 5820 5821 5822 5820 5820 5820
5764 5762 5762 5760 5759 5758 5757 5757 5758 5760 5760 5762 5767 5772 5776 5779 5780 5781 5785 5790 5795 5799 5805 5808 5811 5813 5813 5810 5811 5813 5812 5814 5817 5817 5814 5815 5816 5817 5815 5817 5819 5818 5818
5742 5739 5738 5736 5733 5733 5732 5732 5731 5732 5733 5734 5741 5748 5754 5759 5761 5763 5766 5773 5779 5783 5789 5794 5798 5800 5802 5802 5801 5803 5804 5805 5807 5810 5809 5810 5810 5811 5811 5810 5812 5816 5815
5717 5714 5711 5709 5709 5708 5707 5705 5705 5705 5704 5704 5710 5717 5726 5735 5741 5745 5749 5753 5761 5766 5772 5778 5782 5786 5788 5790 5789 5792 5793 5793 5796 5799 5801 5802 5804 5805 5805 5804 5805 5809 5812
5698 5696 5692 5690 5688 5687 5686 5684 5682 5681 5679 5678 5679 5686 5692 5705 5714 5723 5729 5736 5743 5751 5757 5763 5767 5771 5774 5776 5778 5780 5781 5783 5786 5790 5793 5794 5797 5798 5799 5800 5800 5801 5805
5679 5676 5671 5670 5668 5667 5665 5664 5662 5660 5657 5655 5657 5662 5666 5674 5686 5696 5708 5718 5725 5733 5740 5746 5751 5755 5759 5763 5765 5767 5770 5773 5776 5779 5783 5785 5788 5791 5793 5794 5794 5796 5798
5656 5653 5650 5649 5648 5647 5646 5645 5645 5644 5644 5645 5646 5647 5649 5655 5662 5672 5685 5695 5705 5715 5722 5730 5736 5741 5744 5748 5752 5754 5757 5761 5763 5768 5772 5775 5779 5782 5784 5788 5787 5788 5791
5635 5633 5632 5631 5630 5628 5628 5627 5628 5629 5630 5632 5634 5636 5638 5640 5646 5652 5661 5673 5685 5696 5705 5713 5720 5725 5729 5734 5737 5742 5744 5747 5751 5755 5761 5765 5770 5774 5776 5778 5781 5782 5782
5624 5622 5620 5618 5614 5612 5610 5611 5612 5614 5617 5619 5621 5624 5625 5629 5632 5637 5645 5655 5666 5677 5688 5697 5704 5709 5714 5719 5723 5728 5731 5734 5739 5743 5748 5755 5759 5763 5765 5768 5771 5773 5774
5617 5615 5612 5608 5602 5598 5598 5598 5599 5600 5603 5605 5607 5609 5613 5617 5620 5625 5632 5641 5649 5660 5671 5680 5688 5693 5700 5705 5710 5715 5718 5722 5728 5732 5738 5744 5748 5751 5755 5757 5760 5763 5765
5612 5609 5606 5602 5597 5595 5593 5592 5592 5593 5595 5596 5597 5600 5602 5605 5609 5612 5619 5628 5636 5647 5656 5667 5673 5680 5686 5692 5697 5702 5706 5710 5715 5722 5728 5732 5735 5740 5743 5745 5747 5751 5753
5607 5603 5600 5596 5593 5590 5588 5587 5585 5585 5585 5587 5589 5591 5594 5596 5599 5604 5611 5617 5627 5638 5647 5656 5659 5667 5675 5681 5686 5691 5696 5700 5704 5710 5713 5716 5721 5725 5727 5730 5732 5735 5739
5602 5599 5594 5591 5587 5584 5581 5579 5578 5577 5576 5575 5580 5582 5585 5588 5593 5597 5605 5612 5619 5628 5636 5633 5645 5656 5663 5668 5675 5679 5684 5689 5692 5696 5699 5702 5707 5710 5713 5716 5717 5720 5723